When you browse on this site, cookies collect data to enhance your experience and personalize the content and advertising you see.
Visit our Privacy Policy to learn more. By continuing to use the site, you agree to this use of cookies and data.
  • In Netherlands
  • List of Countries
  • For 7 days
  • Water Temperature
  • Weather Map
  • Weather Widgets
  • user-avatar
    Login

    Hourly Weather Staro-Kurcovo

    Today, 26 May, Tuesday

    Time Temperature Precipitation Wind Pressure Humidity
    00:00 +7°C° 0 mm 0 mps 756 mmHg 87%
    01:00 +7°C° 0 mm 0 mps 757 mmHg 88%
    02:00 +7°C° 0 mm 0 mps 757 mmHg 88%
    03:00 +7°C° 0 mm 0 mps 757 mmHg 86%
    04:00 +8°C° 0 mm 0 mps 758 mmHg 84%
    05:00 +9°C° 0 mm 0 mps 758 mmHg 83%
    06:00 +11°C° 0 mm 0 mps 758 mmHg 75%
    07:00 +14°C° 0 mm 0 mps 758 mmHg 68%
    08:00 +16°C° 0 mm 0 mps 758 mmHg 60%
    09:00 +17°C° 0 mm 0 mps 758 mmHg 55%
    10:00 +20°C° 0 mm 1 mps 758 mmHg 49%
    11:00 +21°C° 0 mm 1 mps 758 mmHg 44%
    12:00 +21°C° 0 mm 1 mps 758 mmHg 43%
    13:00 +21°C° 0 mm 1 mps 758 mmHg 43%
    14:00 +20°C° 0 mm 1 mps 758 mmHg 45%
    15:00 +20°C° 0 mm 1 mps 757 mmHg 50%
    16:00 +20°C° 0 mm 1 mps 757 mmHg 56%
    17:00 +19°C° 0 mm 1 mps 756 mmHg 61%
    18:00 +16°C° 0 mm 1 mps 756 mmHg 66%
    19:00 +15°C° 0 mm 1 mps 756 mmHg 71%
    20:00 +13°C° 0 mm 1 mps 756 mmHg 76%
    21:00 +12°C° 0 mm 1 mps 756 mmHg 79%
    22:00 +11°C° 0 mm 1 mps 756 mmHg 81%
    23:00 +10°C° 0 mm 0 mps 756 mmHg 84%

    Tomorrow, 27 May, Wednesday

    Time Temperature Precipitation Wind Pressure Humidity
    00:00 +9°C° 0 mm 0 mps 756 mmHg 84%
    01:00 +10°C° 0 mm 1 mps 755 mmHg 85%
    02:00 +10°C° 0 mm 1 mps 755 mmHg 85%
    03:00 +10°C° 0 mm 1 mps 755 mmHg 84%
    04:00 +11°C° 0 mm 1 mps 755 mmHg 83%
    05:00 +10°C° 0 mm 0 mps 755 mmHg 82%
    06:00 +12°C° 0 mm 0 mps 755 mmHg 76%
    07:00 +14°C° 0 mm 0 mps 755 mmHg 70%
    08:00 +15°C° 0 mm 0 mps 755 mmHg 64%
    09:00 +16°C° 0.1 mm 0 mps 755 mmHg 60%
    10:00 +17°C° 0.1 mm 0 mps 754 mmHg 56%
    11:00 +20°C° 0.1 mm 1 mps 754 mmHg 52%
    12:00 +20°C° 0.1 mm 1 mps 754 mmHg 51%
    13:00 +20°C° 0.1 mm 1 mps 754 mmHg 51%
    14:00 +20°C° 0.1 mm 1 mps 754 mmHg 50%
    15:00 +20°C° 0.1 mm 1 mps 753 mmHg 54%
    16:00 +19°C° 0.1 mm 1 mps 753 mmHg 58%
    17:00 +19°C° 0.1 mm 1 mps 753 mmHg 62%
    18:00 +16°C° 0.1 mm 1 mps 753 mmHg 68%
    19:00 +15°C° 0.1 mm 1 mps 753 mmHg 74%
    20:00 +13°C° 0.1 mm 1 mps 753 mmHg 79%
    21:00 +13°C° 0 mm 1 mps 753 mmHg 81%
    22:00 +12°C° 0 mm 1 mps 753 mmHg 83%
    23:00 +11°C° 0 mm 1 mps 753 mmHg 85%

    Day after tomorrow, 28 May, Thursday

    Time Temperature Precipitation Wind Pressure Humidity
    00:00 +11°C° 0 mm 1 mps 753 mmHg 86%
    01:00 +10°C° 0 mm 1 mps 753 mmHg 88%
    02:00 +10°C° 0 mm 1 mps 753 mmHg 89%
    03:00 +10°C° 0 mm 1 mps 753 mmHg 88%
    04:00 +11°C° 0 mm 1 mps 753 mmHg 87%
    05:00 +11°C° 0 mm 1 mps 752 mmHg 86%
    06:00 +13°C° 0 mm 1 mps 753 mmHg 79%
    07:00 +15°C° 0 mm 1 mps 753 mmHg 72%
    08:00 +18°C° 0 mm 1 mps 753 mmHg 65%
    09:00 +18°C° 0 mm 2 mps 753 mmHg 60%
    10:00 +19°C° 0 mm 2 mps 752 mmHg 54%
    11:00 +20°C° 0 mm 2 mps 752 mmHg 48%
    12:00 +20°C° 0 mm 2 mps 752 mmHg 48%
    13:00 +21°C° 0 mm 2 mps 752 mmHg 48%
    14:00 +21°C° 0 mm 2 mps 751 mmHg 48%
    15:00 +20°C° 0.1 mm 2 mps 751 mmHg 53%
    16:00 +20°C° 0.1 mm 2 mps 751 mmHg 58%
    17:00 +20°C° 0.1 mm 1 mps 751 mmHg 63%
    18:00 +19°C° 0.1 mm 1 mps 751 mmHg 69%
    19:00 +16°C° 0.1 mm 1 mps 751 mmHg 75%
    20:00 +14°C° 0.1 mm 1 mps 751 mmHg 81%
    21:00 +14°C° 0 mm 1 mps 751 mmHg 83%
    22:00 +14°C° 0 mm 1 mps 751 mmHg 85%
    23:00 +13°C° 0 mm 1 mps 751 mmHg 87%

    29 May, Friday

    Time Temperature Precipitation Wind Pressure Humidity
    00:00 +13°C° 0 mm 1 mps 751 mmHg 89%
    01:00 +12°C° 0 mm 1 mps 751 mmHg 91%
    02:00 +12°C° 0 mm 1 mps 750 mmHg 93%
    03:00 +12°C° 0.2 mm 1 mps 750 mmHg 93%
    04:00 +13°C° 0.2 mm 2 mps 750 mmHg 94%
    05:00 +13°C° 0.2 mm 2 mps 750 mmHg 94%
    06:00 +13°C° 0.1 mm 2 mps 749 mmHg 93%
    07:00 +12°C° 0.1 mm 3 mps 749 mmHg 93%
    08:00 +12°C° 0.1 mm 3 mps 748 mmHg 92%
    09:00 +12°C° 1.4 mm 3 mps 748 mmHg 93%
    10:00 +12°C° 1.4 mm 3 mps 748 mmHg 94%
    11:00 +12°C° 1.4 mm 3 mps 748 mmHg 95%
    12:00 +12°C° 2 mm 3 mps 748 mmHg 96%
    13:00 +13°C° 2 mm 3 mps 747 mmHg 96%
    14:00 +13°C° 2 mm 3 mps 747 mmHg 97%
    15:00 +13°C° 0.1 mm 3 mps 747 mmHg 96%
    16:00 +13°C° 0.1 mm 3 mps 747 mmHg 96%
    17:00 +14°C° 0.1 mm 3 mps 746 mmHg 95%
    18:00 +14°C° 0.2 mm 3 mps 746 mmHg 96%
    19:00 +14°C° 0.2 mm 3 mps 746 mmHg 96%
    20:00 +13°C° 0.2 mm 3 mps 746 mmHg 97%
    21:00 +13°C° 0.3 mm 3 mps 746 mmHg 97%
    22:00 +13°C° 0.3 mm 3 mps 746 mmHg 97%
    23:00 +14°C° 0.3 mm 3 mps 746 mmHg 97%

    30 May, Saturday

    Time Temperature Precipitation Wind Pressure Humidity
    00:00 +14°C° 0.7 mm 4 mps 746 mmHg 97%
    01:00 +14°C° 0.7 mm 4 mps 746 mmHg 97%
    02:00 +14°C° 0.7 mm 4 mps 745 mmHg 97%
    03:00 +14°C° 0.4 mm 4 mps 745 mmHg 97%
    04:00 +14°C° 0.4 mm 4 mps 746 mmHg 96%
    05:00 +14°C° 0.4 mm 4 mps 746 mmHg 96%
    06:00 +15°C° 0.3 mm 4 mps 746 mmHg 96%
    07:00 +15°C° 0.3 mm 4 mps 746 mmHg 96%
    08:00 +15°C° 0.3 mm 5 mps 746 mmHg 96%
    09:00 +15°C° 0.7 mm 5 mps 746 mmHg 96%
    10:00 +15°C° 0.7 mm 5 mps 747 mmHg 96%
    11:00 +15°C° 0.7 mm 5 mps 747 mmHg 96%
    12:00 +15°C° 0.3 mm 5 mps 747 mmHg 96%
    13:00 +15°C° 0.3 mm 5 mps 747 mmHg 95%
    14:00 +15°C° 0.3 mm 5 mps 747 mmHg 94%
    15:00 +15°C° 0 mm 5 mps 747 mmHg 93%
    16:00 +15°C° 0 mm 5 mps 747 mmHg 91%
    17:00 +16°C° 0 mm 5 mps 747 mmHg 90%
    18:00 +15°C° 0 mm 5 mps 747 mmHg 88%
    19:00 +15°C° 0 mm 6 mps 747 mmHg 86%
    20:00 +15°C° 0 mm 6 mps 747 mmHg 84%
    21:00 +15°C° 0 mm 6 mps 747 mmHg 83%
    22:00 +15°C° 0 mm 6 mps 747 mmHg 83%
    23:00 +15°C° 0 mm 6 mps 748 mmHg 82%

    31 May, Sunday

    Time Temperature Precipitation Wind Pressure Humidity
    00:00 +14°C° 0 mm 6 mps 748 mmHg 82%
    01:00 +13°C° 0 mm 6 mps 747 mmHg 81%
    02:00 +11°C° 0 mm 6 mps 747 mmHg 81%
    03:00 +11°C° 0 mm 6 mps 748 mmHg 79%
    04:00 +11°C° 0 mm 6 mps 748 mmHg 78%
    05:00 +10°C° 0 mm 6 mps 748 mmHg 76%
    06:00 +11°C° 0 mm 7 mps 748 mmHg 70%
    07:00 +12°C° 0 mm 8 mps 748 mmHg 63%
    08:00 +13°C° 0 mm 8 mps 749 mmHg 57%
    09:00 +15°C° 0 mm 8 mps 749 mmHg 54%
    10:00 +16°C° 0 mm 8 mps 749 mmHg 51%
    11:00 +17°C° 0 mm 8 mps 749 mmHg 47%
    12:00 +17°C° 0 mm 8 mps 749 mmHg 47%
    13:00 +18°C° 0 mm 7 mps 749 mmHg 47%
    14:00 +18°C° 0 mm 7 mps 749 mmHg 47%
    15:00 +18°C° 0 mm 7 mps 749 mmHg 50%
    16:00 +17°C° 0 mm 6 mps 749 mmHg 52%
    17:00 +17°C° 0 mm 6 mps 750 mmHg 54%
    18:00 +15°C° 0 mm 5 mps 750 mmHg 60%
    19:00 +14°C° 0 mm 4 mps 750 mmHg 66%
    20:00 +12°C° 0 mm 4 mps 751 mmHg 71%
    21:00 +11°C° 0 mm 3 mps 751 mmHg 72%
    22:00 +11°C° 0 mm 3 mps 752 mmHg 73%
    23:00 +10°C° 0 mm 3 mps 752 mmHg 74%
    Show more